Regional Weather Roundup
Issued by NWS

Home | Current Version | Previous Version | Text Only | Print | Product List | Glossary Off
Versions: 1 2 3 4 5 6 7 8 9 10 11 12 13 14 15 16 17 18 19 20 21 22 23 24 25 26 27 28 29 30 31 32 33 34 35 36 37 38 39 40 41 42 43 44 45 46 47 48 49 50

000
ASUS43 KLSX 221607
RWRMO

WEATHER SUMMARY FOR MISSOURI
NATIONAL WEATHER SERVICE SPRINGFIELD MO
1100 AM CDT TUE APR 22 2014

NOTE: "FAIR" INDICATES FEW OR NO CLOUDS BELOW 12,000 FEET WITH NO
       SIGNIFICANT WEATHER AND/OR OBSTRUCTIONS TO VISIBILITY.
       CURRENT SKY AND/OR WEATHER CONDITIONS ARE NOT AVAILABLE FOR
       CHILLICOTHE AND FARMINGTON.

MOZ001>031-035>038-043-044-053-054-221700-
...NORTHERN AND WESTERN MISSOURI...

CITY           SKY/WX    TMP DP  RH WIND       PRES   REMARKS
KANSAS CTY INT MOSUNNY   58  30  34 NE10      30.15S
KANSAS C DTWN  SUNNY     61  32  33 NE9       30.14S
LEE`S SUMMIT   SUNNY     57  30  35 NE12      30.14F
ST JOSEPH      SUNNY     59  31  34 NE15      30.16S
CHILLICOTHE      N/A     57  35  43 NE13      30.15S
KIRKSVILLE     SUNNY     56  33  42 N12G20    30.13R

$$
MOZ066>068-077>081-088>096-101>105-221700-
...SOUTHWEST MISSOURI...

CITY           SKY/WX    TMP DP  RH WIND       PRES   REMARKS
SPRINGFIELD    SUNNY     61  38  42 NE8       30.09R
JOPLIN         SUNNY     61  41  47 N6        30.12S

$$
MOZ032>034-039>042-045>050-055>058-069>072-221700-
...CENTRAL MISSOURI...

CITY           SKY/WX    TMP DP  RH WIND       PRES   REMARKS
COLUMBIA       SUNNY     57  41  55 N9        30.10S
JEFFERSON CITY SUNNY     58  38  47 N7        30.09F
ROLLA          SUNNY     58  40  51 N9        30.07R
SEDALIA        SUNNY     58  37  45 N7        30.12F
WHITEMAN AFB   SUNNY     56  30  37 N12       30.12F
OSAGE BEACH    SUNNY     61  37  41 N5        30.11R

$$
MOZ051-052-059>065-221700-
...EAST CENTRAL MISSOURI...

CITY           SKY/WX    TMP DP  RH WIND       PRES   REMARKS
ST LOUIS INTL  MOSUNNY   62  40  44 N12G21    30.05R
SPIRIT OF STL  SUNNY     59  40  49 N6        30.05S
ST CHARLES     SUNNY     60  41  49 N12       30.04S

$$
MOZ072>076-082>087-097>100-106>115-221700-
...SOUTH CENTRAL AND SOUTHEAST MISSOURI...

CITY           SKY/WX    TMP DP  RH WIND       PRES   REMARKS
CAPE GIRARDEAU SUNNY     65  49  56 NW16      29.98R
FARMINGTON     SUNNY     61  43  51 N12       30.04S
POPLAR BLUFF   SUNNY     68  44  42 N15       29.97S
WEST PLAINS    SUNNY     64  40  41 N10G17    30.05S

$$



USA.gov is the U.S. government's official web portal to all federal, state and local government web resources and services.